Radiation Dose at Monitoring Post of Fukushima Daini Nuclear Power Station
Date,Time,MP-1(microSv/h),MP-2(microSv/h),MP-3(microSv/h),MP-4(microSv/h),MP-5(microSv/h),MP-6(microSv/h),MP-7(microSv/h),Wind Direction,Wind Velocity(m/s),Rain
2019/04/26,00:00,0.202,0.189,0.309,0.290,0.276,0.155,0.094,north-northwest,7.3,No
2019/04/26,00:10,0.201,0.191,0.310,0.291,0.275,0.154,0.094,north-northwest,8.1,No
2019/04/26,00:20,0.201,0.190,0.310,0.290,0.275,0.156,0.093,north-northwest,8.5,No
2019/04/26,00:30,0.202,0.190,0.310,0.291,0.275,0.154,0.094,north-northwest,8.1,No
2019/04/26,00:40,0.202,0.189,0.311,0.291,0.273,0.154,0.094,north-northwest,7.7,No
2019/04/26,00:50,0.202,0.191,0.311,0.290,0.276,0.155,0.094,northwest,7.6,No
2019/04/26,01:00,0.203,0.190,0.311,0.292,0.274,0.155,0.094,north-northwest,8.4,No
2019/04/26,01:10,0.202,0.190,0.313,0.292,0.277,0.155,0.094,north-northwest,8.2,No
2019/04/26,01:20,0.203,0.192,0.311,0.291,0.277,0.155,0.094,north-northwest,8.5,No
2019/04/26,01:30,0.203,0.190,0.312,0.291,0.276,0.154,0.094,north-northwest,8.4,No
2019/04/26,01:40,0.203,0.192,0.313,0.291,0.279,0.155,0.095,north-northwest,7.6,Yes
2019/04/26,01:50,0.205,0.192,0.312,0.291,0.278,0.155,0.094,north-northwest,7.6,Yes
2019/04/26,02:00,0.204,0.194,0.313,0.292,0.276,0.157,0.096,north-northwest,8.4,Yes
2019/04/26,02:10,0.205,0.194,0.314,0.292,0.280,0.158,0.096,north-northwest,8.1,Yes
2019/04/26,02:20,0.206,0.194,0.314,0.294,0.278,0.159,0.098,north-northwest,6.7,Yes
2019/04/26,02:30,0.206,0.194,0.314,0.294,0.279,0.160,0.099,north-northwest,7.0,Yes
2019/04/26,02:40,0.206,0.195,0.316,0.294,0.279,0.161,0.100,north,7.1,Yes
2019/04/26,02:50,0.206,0.195,0.316,0.293,0.279,0.160,0.098,north,10.1,Yes
2019/04/26,03:00,0.205,0.196,0.316,0.296,0.279,0.161,0.099,north-northwest,7.8,Yes
2019/04/26,03:10,0.207,0.197,0.315,0.295,0.282,0.163,0.102,north,10.4,Yes
2019/04/26,03:20,0.208,0.199,0.316,0.294,0.280,0.165,0.104,north-northwest,10.7,Yes
2019/04/26,03:30,0.210,0.201,0.315,0.295,0.280,0.164,0.105,north-northwest,9.6,Yes
2019/04/26,03:40,0.207,0.199,0.313,0.294,0.280,0.165,0.104,north-northwest,9.5,Yes
2019/04/26,03:50,0.207,0.199,0.314,0.294,0.282,0.165,0.104,north-northwest,10.7,Yes
2019/04/26,04:00,0.208,0.198,0.314,0.293,0.280,0.164,0.104,north,9.0,Yes
2019/04/26,04:10,0.207,0.198,0.312,0.292,0.280,0.164,0.104,north-northwest,10.6,Yes
2019/04/26,04:20,0.205,0.197,0.310,0.291,0.280,0.163,0.103,north-northwest,10.4,Yes
2019/04/26,04:30,0.207,0.196,0.312,0.292,0.279,0.163,0.102,north-northwest,9.8,Yes
2019/04/26,04:40,0.204,0.196,0.310,0.290,0.279,0.162,0.102,north-northwest,9.5,Yes
2019/04/26,04:50,0.205,0.195,0.308,0.290,0.279,0.161,0.100,north,11.4,Yes
2019/04/26,05:00,0.204,0.193,0.310,0.288,0.277,0.160,0.100,north-northwest,8.5,Yes
2019/04/26,05:10,0.202,0.192,0.309,0.288,0.275,0.157,0.099,north,10.4,Yes
2019/04/26,05:20,0.203,0.192,0.309,0.288,0.276,0.158,0.097,north-northwest,8.8,Yes
2019/04/26,05:30,0.202,0.191,0.307,0.287,0.275,0.156,0.097,north-northwest,8.8,Yes
2019/04/26,05:40,0.201,0.190,0.308,0.287,0.274,0.157,0.097,north,10.3,Yes
2019/04/26,05:50,0.202,0.191,0.307,0.288,0.275,0.156,0.098,north-northwest,11.5,Yes
2019/04/26,06:00,0.204,0.194,0.307,0.289,0.277,0.160,0.100,north-northwest,8.4,Yes
2019/04/26,06:10,0.206,0.196,0.308,0.287,0.277,0.161,0.101,north-northwest,10.4,Yes
2019/04/26,06:20,0.206,0.196,0.311,0.289,0.277,0.163,0.103,north-northwest,8.8,Yes
2019/04/26,06:30,0.207,0.196,0.310,0.289,0.277,0.163,0.103,north-northwest,9.0,Yes
2019/04/26,06:40,0.207,0.197,0.309,0.289,0.279,0.163,0.103,north-northwest,9.6,Yes
2019/04/26,06:50,0.206,0.197,0.308,0.288,0.279,0.162,0.103,north-northwest,8.2,Yes
2019/04/26,07:00,0.205,0.197,0.308,0.289,0.279,0.161,0.102,north,9.5,Yes
2019/04/26,07:10,0.205,0.196,0.309,0.288,0.278,0.161,0.102,north-northwest,9.0,Yes
2019/04/26,07:20,0.203,0.195,0.307,0.288,0.277,0.159,0.100,north-northwest,11.1,Yes
2019/04/26,07:30,0.202,0.193,0.306,0.287,0.275,0.157,0.100,north-northwest,9.2,Yes
2019/04/26,07:40,0.202,0.192,0.305,0.286,0.276,0.158,0.097,north-northwest,8.7,No
2019/04/26,07:50,0.201,0.191,0.306,0.284,0.274,0.155,0.097,north,10.1,Yes
2019/04/26,08:00,0.199,0.190,0.303,0.283,0.274,0.154,0.096,north-northwest,11.5,Yes
2019/04/26,08:10,0.199,0.188,0.302,0.284,0.274,0.154,0.096,north-northwest,9.2,Yes
2019/04/26,08:20,0.199,0.188,0.302,0.283,0.273,0.155,0.096,north-northwest,9.5,Yes
2019/04/26,08:30,0.200,0.188,0.304,0.283,0.273,0.154,0.097,north-northwest,9.8,Yes
2019/04/26,08:40,0.200,0.189,0.302,0.282,0.272,0.154,0.097,north-northwest,9.5,Yes
2019/04/26,08:50,0.199,0.189,0.302,0.283,0.273,0.155,0.097,north-northwest,8.7,Yes
2019/04/26,09:00,0.199,0.188,0.305,0.282,0.273,0.156,0.098,north-northwest,9.2,Yes
2019/04/26,09:10,0.200,0.190,0.303,0.282,0.274,0.155,0.099,north-northwest,11.0,Yes
2019/04/26,09:20,0.199,0.190,0.303,0.283,0.273,0.156,0.099,north-northwest,9.2,Yes
2019/04/26,09:30,0.201,0.189,0.301,0.283,0.273,0.155,0.099,north,9.8,Yes
2019/04/26,09:40,0.199,0.186,0.302,0.283,0.272,0.155,0.098,north-northwest,9.3,Yes
2019/04/26,09:50,0.199,0.186,0.301,0.281,0.272,0.154,0.097,north,11.3,Yes
2019/04/26,10:00,0.198,-,0.301,0.281,0.273,0.155,0.097,north,9.8,Yes
2019/04/26,10:10,0.200,-,0.302,0.283,0.273,0.155,0.098,north-northwest,9.0,Yes
2019/04/26,10:20,0.199,-,0.304,0.281,0.274,0.155,0.097,north,9.2,Yes
2019/04/26,10:30,0.198,-,0.300,0.281,0.274,0.154,0.097,north,8.5,No
2019/04/26,10:40,0.198,-,0.301,0.283,0.272,0.153,0.096,north,10.4,No
2019/04/26,10:50,0.198,-,0.301,0.280,0.272,0.153,0.095,north,12.3,No
2019/04/26,11:00,0.197,-,0.301,0.279,0.272,0.152,0.094,north,8.8,No
2019/04/26,11:10,0.196,-,0.299,0.279,0.271,0.151,0.094,north,9.2,No
2019/04/26,11:20,0.196,-,0.300,0.279,0.270,0.150,0.093,north,9.8,No
2019/04/26,11:30,0.196,-,0.300,0.279,0.270,0.150,0.093,north-northwest,9.5,No
2019/04/26,11:40,0.198,-,0.300,0.279,0.270,0.149,0.093,north,10.7,No
2019/04/26,11:50,0.195,-,0.298,0.278,0.270,0.150,0.093,north,9.2,Yes
2019/04/26,12:00,0.196,-,0.298,0.279,0.271,0.151,0.093,north,8.2,No
2019/04/26,12:10,0.196,-,0.299,0.278,0.271,0.150,0.092,north,8.4,Yes
2019/04/26,12:20,0.197,-,0.301,0.279,0.271,0.151,0.094,north,8.4,Yes
2019/04/26,12:30,0.197,-,0.299,0.280,0.272,0.152,0.095,north,9.3,Yes
2019/04/26,12:40,0.198,-,0.299,0.279,0.271,0.151,0.094,north,9.0,Yes
2019/04/26,12:50,0.198,-,0.301,0.279,0.273,0.151,0.094,north,10.9,Yes
2019/04/26,13:00,0.197,-,0.301,0.281,0.271,0.152,0.094,north-northwest,8.7,Yes
2019/04/26,13:10,0.197,-,0.302,0.279,0.271,0.151,0.095,north,9.3,No
2019/04/26,13:20,0.197,-,0.300,0.279,0.272,0.150,0.093,north-northwest,9.2,Yes
2019/04/26,13:30,0.197,-,0.299,0.279,0.270,0.151,0.093,north-northwest,9.2,Yes
2019/04/26,13:40,0.197,-,0.302,0.278,0.271,0.150,0.092,north-northwest,8.8,No
2019/04/26,13:50,0.198,-,0.301,0.280,0.272,0.150,0.093,north-northwest,9.5,Yes
2019/04/26,14:00,0.197,-,0.300,0.279,0.270,0.150,0.092,north-northwest,11.2,Yes
2019/04/26,14:10,0.197,-,0.301,0.280,0.272,0.151,0.094,north-northwest,10.1,Yes
2019/04/26,14:20,0.198,-,0.300,0.280,0.273,0.151,0.094,north-northwest,8.8,Yes
2019/04/26,14:30,0.198,-,0.300,0.279,0.271,0.153,0.094,north-northwest,8.6,Yes
2019/04/26,14:40,0.198,-,0.301,0.279,0.272,0.152,0.094,north,8.5,Yes
2019/04/26,14:50,0.197,0.185,0.300,0.279,0.271,0.152,0.094,north,8.1,Yes
2019/04/26,15:00,0.198,0.186,0.301,0.279,0.271,0.151,0.094,north,9.5,No
2019/04/26,15:10,0.198,0.186,0.299,0.277,0.270,0.151,0.093,north,8.4,No
2019/04/26,15:20,0.196,0.185,0.300,0.279,0.269,0.150,0.092,north,9.2,No
2019/04/26,15:30,0.195,0.183,0.301,0.277,0.270,0.149,0.091,north,9.8,No
2019/04/26,15:40,0.196,0.184,0.300,0.277,0.269,0.149,0.092,north-northwest,9.5,No
2019/04/26,15:50,0.196,0.183,0.299,0.278,0.269,0.149,0.091,north-northwest,7.3,No
2019/04/26,16:00,0.195,0.182,0.300,0.278,0.269,0.148,0.091,north,9.2,No
2019/04/26,16:10,0.195,0.183,0.299,0.276,0.270,0.148,0.091,north-northwest,10.0,No
2019/04/26,16:20,0.194,0.183,0.298,0.277,0.269,0.149,0.091,north-northwest,7.3,Yes
2019/04/26,16:30,0.194,0.183,0.298,0.277,0.270,0.148,0.090,north,8.1,No
2019/04/26,16:40,0.194,0.183,0.299,0.278,0.269,0.149,0.090,north,7.9,Yes
2019/04/26,16:50,0.194,0.183,0.299,0.276,0.268,0.148,0.090,north,9.5,No
2019/04/26,17:00,0.195,0.183,0.297,0.277,0.268,0.148,0.091,north-northwest,6.6,No
2019/04/26,17:10,0.194,0.183,0.299,0.278,0.270,0.148,0.091,north,8.1,No
2019/04/26,17:20,0.195,0.183,0.299,0.276,0.270,0.148,0.091,north,6.6,No
2019/04/26,17:30,0.194,0.182,0.298,0.276,0.268,0.149,0.091,north,6.8,No
2019/04/26,17:40,0.195,0.183,0.297,0.278,0.270,0.148,0.090,north,6.4,No
2019/04/26,17:50,0.195,0.183,0.299,0.278,0.269,0.148,0.090,north,6.8,No
2019/04/26,18:00,0.195,0.182,0.299,0.276,0.268,0.149,0.090,north,5.6,No
2019/04/26,18:10,0.194,0.183,0.297,0.277,0.270,0.148,0.091,north,6.8,No
2019/04/26,18:20,0.196,0.183,0.297,0.278,0.269,0.149,0.090,north-northwest,6.2,No
2019/04/26,18:30,0.196,0.182,0.298,0.278,0.269,0.148,0.090,north-northwest,5.1,No
2019/04/26,18:40,0.195,0.183,0.298,0.278,0.267,0.148,0.090,north-northwest,5.4,No
2019/04/26,18:50,0.196,0.182,0.298,0.278,0.269,0.148,0.091,north,5.6,Yes
2019/04/26,19:00,0.196,0.183,0.299,0.278,0.269,0.148,0.090,north-northwest,4.5,Yes
2019/04/26,19:10,0.195,0.183,0.299,0.277,0.268,0.149,0.090,north-northwest,3.9,No
2019/04/26,19:20,0.194,0.183,0.298,0.278,0.270,0.150,0.091,north,5.7,No
2019/04/26,19:30,0.196,0.183,0.299,0.279,0.270,0.149,0.091,north,5.7,No
2019/04/26,19:40,0.195,0.183,0.298,0.277,0.270,0.149,0.091,north,5.3,No
2019/04/26,19:50,0.194,0.183,0.299,0.277,0.269,0.149,0.091,north,4.2,No
2019/04/26,20:00,0.195,0.183,0.299,0.278,0.268,0.149,0.091,north-northwest,5.0,Yes
2019/04/26,20:10,0.195,0.183,0.299,0.277,0.269,0.148,0.090,north-northwest,5.5,No
2019/04/26,20:20,0.195,0.183,0.299,0.278,0.270,0.150,0.091,north-northwest,5.6,No
2019/04/26,20:30,0.195,0.183,0.300,0.279,0.269,0.149,0.091,north-northwest,5.6,Yes
2019/04/26,20:40,0.195,0.184,0.297,0.278,0.270,0.149,0.091,north-northwest,5.9,Yes
2019/04/26,20:50,0.195,0.184,0.299,0.276,0.270,0.149,0.091,north-northwest,5.6,Yes
2019/04/26,21:00,0.195,0.183,0.300,0.279,0.269,0.148,0.091,north,3.7,Yes
2019/04/26,21:10,0.195,0.183,0.299,0.279,0.270,0.149,0.091,north,4.8,No
2019/04/26,21:20,0.195,0.183,0.299,0.278,0.268,0.149,0.091,north,5.9,No
2019/04/26,21:30,0.195,0.183,0.299,0.278,0.269,0.150,0.091,north-northwest,4.8,No
2019/04/26,21:40,0.194,0.183,0.298,0.279,0.269,0.148,0.090,north-northwest,5.4,Yes
2019/04/26,21:50,0.195,0.184,0.298,0.278,0.267,0.149,0.091,north-northwest,4.2,No
2019/04/26,22:00,0.195,0.184,0.300,0.278,0.269,0.148,0.091,north,4.0,No
2019/04/26,22:10,0.195,0.184,0.300,0.279,0.270,0.149,0.090,north-northwest,3.5,Yes
2019/04/26,22:20,0.195,0.184,0.299,0.278,0.268,0.149,0.090,north-northwest,3.7,No
2019/04/26,22:30,0.195,0.185,0.298,0.277,0.268,0.149,0.091,north,1.9,No
2019/04/26,22:40,0.196,0.183,0.300,0.278,0.270,0.150,0.091,north,3.0,No
2019/04/26,22:50,0.195,0.183,0.301,0.277,0.269,0.149,0.090,north,3.0,Yes
2019/04/26,23:00,0.195,0.183,0.299,0.278,0.269,0.149,0.092,north-northeast,3.5,Yes
2019/04/26,23:10,0.195,0.184,0.298,0.278,0.269,0.149,0.092,north,4.8,Yes
2019/04/26,23:20,0.195,0.182,0.299,0.277,0.269,0.149,0.091,north,3.6,Yes
2019/04/26,23:30,0.195,0.183,0.299,0.278,0.268,0.149,0.091,north-northwest,3.8,Yes
2019/04/26,23:40,0.195,0.185,0.299,0.278,0.269,0.150,0.091,north-northwest,4.3,Yes
2019/04/26,23:50,0.195,0.185,0.299,0.277,0.270,0.150,0.091,north-northwest,5.1,Yes
